(29) Amphitrite
ephemeris date magn radius delta ra dec elong phase
Today9 Jul 202511.52.637 AU3.114 AU10h46m+07°37'53.4°18.0°
Opposition28 May 20269.72.739 AU1.734 AU16h15m-30°32'170.9°3.4°
(29) Amphitrite - 2025-07-09
astro.vanbuitenen.nl


 
-1 year
-1 month
-1 day
Now
+1 day
+1 month
+1 year

The interactive orbit chart above shows the body's path through the solar system and its position at the given date. Green and blue lines are shown perpendicular to the ecliptic plane: Green if the path is above the ecliptic plane, blue if it is below. (Left-click and drag to rotate the view; Right-click and drag to move the view; Use scroll wheel to zoom in our out.)

The orbital elements of Amphitrite are:

            e (Eccentricity)                : 0.0734638
            a (Semimajor axis)              : 2.5539190
            i (Inclination)                 : 6.07775
            Ω (Longitude of ascending node) : 356.25570
            ω (Argument of perihelion)      : 61.88223
            M (Mean anomaly)                : 96.82761
            Epoch                           : 2025 May 05

            L (Longitude of perihelion)     : 58.00348
            B (Latitude of perihelion)      : 5.35822
            P (Orbital period in years)     : 4.08            
        

The light curve chart below shows the estimated development of the minor planet's magnitude.


The all-sky chart below shows the path of the minor planet over the same period as the light curve. The current position is marked yellow.





The following chart shows the path of the minor planet in the next few days. The field of view is optimized for (~10x50) binoculars and finderscopes. A more printer-friendly version of the same chart can be found below.




Ephemerides:
Date       Time       RA (2000)    DEC (2000)    delta   radius  elong  phase   PA    magn
2025-07-09 00:00 UT   10 46 17.0   +07 37 11     3.114    2.637   53.4   18.0   112   11.5 
2025-07-09 03:30 UT   10 46 28.9   +07 35 48     3.115    2.637   53.3   18.0   112   11.5 
2025-07-10 00:00 UT   10 47 38.5   +07 27 41     3.125    2.638   52.8   17.9   112   11.5 
2025-07-11 00:00 UT   10 49 00.2   +07 18 09     3.136    2.638   52.2   17.7   112   11.5 
2025-07-12 00:00 UT   10 50 22.1   +07 08 34     3.146    2.639   51.7   17.6   112   11.5 
2025-07-13 00:00 UT   10 51 44.3   +06 58 57     3.157    2.640   51.1   17.4   113   11.5 
2025-07-14 00:00 UT   10 53 06.7   +06 49 17     3.168    2.640   50.5   17.3   113   11.5 
2025-07-15 00:00 UT   10 54 29.3   +06 39 36     3.178    2.641   49.9   17.1   113   11.5 
2025-07-16 00:00 UT   10 55 52.1   +06 29 52     3.189    2.642   49.4   17.0   113   11.5 
2025-07-17 00:00 UT   10 57 15.2   +06 20 07     3.199    2.642   48.8   16.8   113   11.5 
2025-07-18 00:00 UT   10 58 38.5   +06 10 19     3.210    2.643   48.2   16.7   113   11.5 
2025-07-19 00:00 UT   11 00 02.1   +06 00 29     3.220    2.644   47.6   16.5   113   11.5 
2025-07-20 00:00 UT   11 01 25.8   +05 50 36     3.230    2.644   47.1   16.3   113   11.5 
2025-07-21 00:00 UT   11 02 49.8   +05 40 42     3.240    2.645   46.5   16.2   113   11.5 
2025-07-22 00:00 UT   11 04 13.9   +05 30 46     3.250    2.646   45.9   16.0   113   11.5 
2025-07-23 00:00 UT   11 05 38.3   +05 20 48     3.260    2.646   45.4   15.9   113   11.5 
2025-07-24 00:00 UT   11 07 02.9   +05 10 48     3.270    2.647   44.8   15.7   113   11.5 
2025-07-25 00:00 UT   11 08 27.6   +05 00 46     3.279    2.648   44.2   15.5   113   11.5 
2025-07-26 00:00 UT   11 09 52.6   +04 50 42     3.289    2.648   43.7   15.4   113   11.5 
2025-07-27 00:00 UT   11 11 17.7   +04 40 36     3.298    2.649   43.1   15.2   113   11.5 
2025-07-28 00:00 UT   11 12 43.1   +04 30 28     3.308    2.650   42.5   15.0   113   11.5 
2025-07-29 00:00 UT   11 14 08.6   +04 20 19     3.317    2.650   42.0   14.8   114   11.5 
2025-07-30 00:00 UT   11 15 34.3   +04 10 08     3.326    2.651   41.4   14.7   114   11.5 
2025-07-31 00:00 UT   11 17 00.1   +03 59 56     3.335    2.652   40.8   14.5   114   11.5 


    Terminology:
            
    delta:  distance between minor planet and earth in AU
    radius: distance between minor planet and sun in AU
    magn:   magnitude (brightness) estimate    
    ra:     right ascension in hours (24h = 360deg)
    dec:    declination in degrees
    elong:  elongation in degrees (angle sun-earth-minor planet)    
    phase:  phase angle in degrees (angle sun-minor planet-earth)        
    AU:     Astronomical Unit (mean distance between earth and sun: 149597870.7 km
    

Orbital elements provided by the MPC (Minor Planet Center).
Calculations by a modified version of AAPlus, a C# implementation of the AA+ project by PJ Naughter from the algorithms presented in the book "Astronomical Algorithms" by Jean Meeus.
NGC2000 dso catalog and star labels from VizieR as provided by the Strasbourg astronomical Data Center.
Tycho2 catalog from the ESO archive.